EA1DB-1 Weather Reports


time (UTC)temp
C
wind
direction
speed
KPH
gust
KPH
rain 1hr
cm
rain 24hr
cm
rain mn
cm
humidity
%
barometer
mb
20260508132131 15 135 9.7 14.5 0.00 0.00 0.00 65 1005.1
20260508131108 15 270 6.4 12.9 0.00 0.00 0.00 62 1005.2
20260508130127 16 135 4.8 11.3 0.00 0.00 0.00 61 1005.1
20260508125107 16 270 4.8 9.7 0.00 0.00 0.00 61 1005.0
20260508124127 16 270 6.4 9.7 0.00 0.00 0.00 61 1005.1
20260508123151 15 315 4.8 6.4 0.00 0.00 0.00 63 1005.0
20260508122128 15 292 6.4 9.7 0.00 0.00 0.00 63 1005.2
20260508121107 14 270 4.8 9.7 0.00 0.00 0.00 67 1005.2
20260508120127 13 270 3.2 6.4 0.00 0.00 0.00 67 1004.9
20260508115107 13 135 0.0 3.2 0.00 0.00 0.00 66 1005.2
20260508114127 13 225 6.4 9.7 0.00 0.00 0.00 64 1005.3
20260508113107 14 90 4.8 14.5 0.00 0.00 0.00 64 1005.3
20260508112127 15 270 14.5 30.6 0.00 0.00 0.00 63 1005.2
20260508111107 15 225 4.8 12.9 0.00 0.00 0.00 62 1005.1
20260508110127 15 315 14.5 20.9 0.00 0.00 0.00 61 1005.2
20260508105127 15 157 3.2 8.0 0.00 0.00 0.00 58 1005.2
20260508104127 15 180 4.8 8.0 0.00 0.00 0.00 58 1005.0
20260508103107 16 292 3.2 8.0 0.00 0.00 0.00 59 1004.9
20260508102127 15 202 6.4 9.7 0.00 0.00 0.00 58 1004.9
20260508101107 16 270 4.8 11.3 0.00 0.00 0.00 56 1004.7
20260508100128 16 315 8.0 14.5 0.00 0.00 0.00 54 1004.7
20260508095127 16 270 4.8 9.7 0.00 0.00 0.00 55 1004.6
20260508094127 16 180 9.7 14.5 0.00 0.00 0.00 58 1004.6
20260508093107 15 157 3.2 6.4 0.00 0.00 0.00 59 1004.6
20260508091907 15 247 1.6 4.8 0.00 0.00 0.00 64 1004.7
20260508091105 15 135 1.6 4.8 0.00 0.00 0.00 64 1004.6
20260508090126 15 315 4.8 6.4 0.00 0.00 0.00 66 1004.7
20260508085104 15 135 0.0 4.8 0.00 0.00 0.00 69 1004.7
20260508084126 14 270 1.6 4.8 0.00 0.00 0.00 74 1004.6
20260508083104 13 225 0.0 3.2 0.00 0.00 0.00 74 1004.6
20260508082126 13 135 0.0 1.6 0.00 0.00 0.00 74 1004.4
20260508081104 13 0.0 1.6 0.00 0.00 0.00 76 1004.2
20260508080126 13 112 0.0 1.6 0.00 0.00 0.00 76 1004.4
20260508075150 13 0.0 0.0 0.00 0.00 0.00 77 1004.2
20260508074126 13 0.0 0.0 0.00 0.00 0.00 77 1004.1
20260508073104 13 135 0.0 3.2 0.00 0.00 0.00 78 1004.4
20260508072126 13 0.0 0.0 0.00 0.00 0.00 78 1004.4
20260508071124 12 0.0 0.0 0.00 0.00 0.00 78 1004.3
20260508070126 12 90 0.0 3.2 0.00 0.00 0.00 78 1004.1
20260508065104 12 0.0 0.0 0.00 0.00 0.00 78 1004.1
20260508064127 12 90 1.6 6.4 0.00 0.00 0.00 78 1004.2
20260508063105 12 135 1.6 4.8 0.00 0.00 0.00 78 1004.1
20260508062146 12 90 4.8 9.7 0.00 0.00 0.00 78 1004.2
20260508061105 12 0.0 0.0 0.00 0.00 0.00 78 1004.0
20260508060126 12 270 0.0 3.2 0.00 0.00 0.00 80 1003.9
20260508055125 12 0.0 0.0 0.00 0.00 0.00 80 1004.0
20260508054126 12 0.0 0.0 0.00 0.00 0.00 80 1004.0
20260508053150 12 0.0 0.0 0.00 0.00 0.00 80 1004.4
20260508052126 12 135 0.0 1.6 0.00 0.00 0.00 80 1004.3
20260508051105 12 135 0.0 3.2 0.00 0.00 0.00 80 1004.0
20260508050126 12 135 1.6 4.8 0.00 0.00 0.00 81 1004.0
20260508045105 12 90 1.6 4.8 0.00 0.00 0.00 81 1003.7
20260508044126 12 0.0 0.0 0.00 0.00 0.00 81 1003.7
20260508043105 12 0.0 0.0 0.00 0.00 0.00 81 1003.9
20260508042126 12 0.0 0.0 0.00 0.00 0.00 81 1003.8
20260508041105 12 90 1.6 4.8 0.00 0.00 0.00 81 1003.8
20260508040126 12 0.0 1.6 0.00 0.00 0.00 80 1003.7
20260508035105 12 0.0 0.0 0.00 0.00 0.00 79 1004.1
20260508034126 12 135 0.0 1.6 0.00 0.00 0.00 79 1004.4
20260508033105 12 90 0.0 3.2 0.00 0.00 0.00 79 1004.3
20260508032126 12 0.0 1.6 0.00 0.00 0.00 80 1004.5
20260508031105 12 0.0 0.0 0.00 0.00 0.00 80 1004.5
20260508030128 12 135 0.0 3.2 0.00 0.00 0.00 79 1004.6
20260508025107 12 0.0 3.2 0.00 0.00 0.00 78 1004.6
20260508024128 12 0.0 0.0 0.00 0.00 0.00 79 1004.6
20260508023212 12 135 0.0 1.6 0.00 0.00 0.00 79 1004.4
20260508022042 12 0.0 0.0 0.00 0.00 0.00 79 1004.6
20260508021106 12 0.0 0.0 0.00 0.00 0.00 79 1004.7
20260508020146 12 0.0 0.0 0.00 0.00 0.00 79 1004.9
20260508015151 12 0.0 1.6 0.00 0.00 0.00 79 1005.1
20260508014126 12 0.0 0.0 0.00 0.00 0.00 79 1004.9
20260508013107 12 0.0 0.0 0.00 0.00 0.00 79 1004.9
20260508012128 13 0.0 1.6 0.00 0.00 0.00 79 1005.1
20260508011212 13 0.0 0.0 0.00 0.00 0.00 78 1005.1
20260508010126 13 0.0 0.0 0.00 0.00 0.00 78 1005.3
20260508005105 13 0.0 0.0 0.00 0.00 0.00 78 1005.3
20260508004146 13 112 0.0 3.2 0.00 0.00 0.00 78 1005.6
20260508003150 13 0.0 1.6 0.00 0.00 0.00 79 1005.5
20260508002142 13 135 1.6 3.2 0.00 0.00 0.00 79 1005.8
20260508001152 13 135 0.0 3.2 0.00 0.00 0.00 79 1005.7
20260508000128 13 0.0 0.0 0.00 0.00 0.00 79 1006.0
20260507235105 13 0.0 1.6 0.00 0.00 0.00 79 1006.1
20260507234207 13 0.0 1.6 0.00 0.00 0.00 79 1006.1
20260507233109 13 112 0.0 1.6 0.00 0.00 0.00 79 1006.2
20260507232127 13 135 1.6 4.8 0.00 0.00 0.00 79 1006.2
20260507231105 13 0.0 1.6 0.00 0.00 0.00 79 1006.3
20260507230126 13 0.0 0.0 0.00 0.00 0.00 78 1006.5
20260507225104 13 90 1.6 4.8 0.00 0.00 0.00 78 1006.3
20260507224126 13 90 1.6 3.2 0.00 0.00 0.00 77 1006.3
20260507223124 13 0.0 0.0 0.00 0.00 0.00 77 1006.4
20260507222126 13 0.0 0.0 0.00 0.00 0.00 77 1006.5
20260507221104 13 315 3.2 4.8 0.00 0.00 0.00 77 1006.4
20260507220127 14 270 4.8 9.7 0.00 0.00 0.00 77 1006.4
20260507215105 14 247 3.2 4.8 0.00 0.00 0.00 77 1006.8
20260507214129 14 0.0 0.0 0.00 0.00 0.00 77 1006.6
20260507213125 14 0.0 0.0 0.00 0.00 0.00 77 1006.8
20260507212126 14 0.0 0.0 0.00 0.00 0.00 77 1006.5
20260507211104 14 0.0 0.0 0.00 0.00 0.00 77 1006.7
20260507210126 14 270 4.8 9.7 0.00 0.00 0.00 77 1006.7
20260507205105 14 225 4.8 4.8 0.00 0.00 0.00 77 1006.7
20260507204126 14 270 1.6 4.8 0.00 0.00 0.00 77 1006.5
20260507203104 14 0.0 0.0 0.00 0.00 0.00 77 1006.5
20260507202146 14 270 1.6 4.8 0.00 0.00 0.00 77 1006.4
20260507201104 14 225 9.7 12.9 0.00 0.00 0.00 77 1006.3
20260507200126 15 270 3.2 4.8 0.00 0.00 0.00 76 1006.1
20260507195104 15 270 4.8 8.0 0.00 0.00 0.00 76 1006.1
20260507194126 15 270 4.8 8.0 0.00 0.00 0.00 76 1005.8
20260507193104 15 270 9.7 14.5 0.00 0.00 0.00 76 1005.9
20260507192127 15 270 4.8 8.0 0.00 0.00 0.00 76 1005.8
20260507191105 15 315 6.4 9.7 0.00 0.00 0.00 76 1005.7
20260507190126 15 315 8.0 12.9 0.00 0.00 0.00 76 1005.4
20260507185104 15 270 4.8 9.7 0.00 0.00 0.00 76 1005.3
20260507184127 15 225 4.8 9.7 0.00 0.00 0.00 75 1005.3
20260507183105 15 315 4.8 11.3 0.00 0.00 0.00 74 1005.1
20260507182126 15 315 6.4 14.5 0.00 0.00 0.00 73 1005.5
20260507181104 15 315 4.8 8.0 0.00 0.00 0.00 72 1005.2
20260507180126 16 292 6.4 11.3 0.00 0.00 0.00 71 1005.3
20260507175104 16 225 9.7 17.7 0.00 0.00 0.00 69 1005.2
20260507174126 16 315 8.0 11.3 0.00 0.00 0.00 67 1005.2
20260507173104 16 270 9.7 14.5 0.00 0.00 0.00 65 1005.2
20260507172146 16 315 6.4 12.9 0.00 0.00 0.00 64 1005.3
20260507171104 16 247 6.4 9.7 0.00 0.00 0.00 63 1005.2
20260507170126 16 315 9.7 14.5 0.00 0.00 0.00 63 1005.3
20260507165108 16 315 9.7 14.5 0.00 0.00 0.00 62 1005.3
20260507164126 17 270 12.9 17.7 0.00 0.00 0.00 58 1005.3
20260507163104 17 270 12.9 17.7 0.00 0.00 0.00 55 1005.1
20260507162126 17 315 9.7 14.5 0.00 0.00 0.00 56 1005.1
20260507161104 17 315 9.7 17.7 0.00 0.00 0.00 57 1005.2
20260507160126 17 292 3.2 4.8 0.00 0.00 0.00 56 1005.0
20260507155124 18 180 8.0 16.1 0.00 0.00 0.00 58 1005.0
20260507154126 17 315 8.0 14.5 0.00 0.00 0.00 56 1005.1
20260507153105 18 180 0.0 4.8 0.00 0.00 0.00 57 1005.0
20260507152126 18 270 1.6 4.8 0.00 0.00 0.00 60 1005.0
20260507151104 17 135 0.0 1.6 0.00 0.00 0.00 61 1005.3
20260507150126 17 270 9.7 19.3 0.00 0.00 0.00 58 1005.2
20260507145105 17 315 9.7 14.5 0.00 0.00 0.00 57 1005.4
20260507144126 18 315 1.6 6.4 0.00 0.00 0.00 57 1005.5
20260507143124 17 0.0 4.8 0.00 0.00 0.00 59 1005.5
20260507142126 17 315 1.6 4.8 0.00 0.00 0.00 58 1005.4
20260507141105 17 270 6.4 9.7 0.00 0.00 0.00 58 1005.6
20260507140126 18 180 4.8 9.7 0.00 0.00 0.00 59 1005.5
20260507135104 18 315 17.7 24.1 0.00 0.00 0.00 57 1005.5
20260507134126 18 225 3.2 6.4 0.00 0.00 0.00 57 1005.4
20260507133104 17 270 11.3 14.5 0.00 0.00 0.00 55 1005.5